Location: Six Mile Lake
(44.9000°N, 79.7170°W)
Time: 21:24:18
(UTC-04:00)

BEESAT - Pass Details

Date: 04 July 2022
Orbit: 700 x 706 km, 98.6° (Epoch: 16 August)

Event Time Altitude Azimuth Distance (km) Brightness Sun altitude
Rises 23:21:07 0° 357° (N) 3,106 ? -16.8°
Reaches altitude 10° 23:24:18 10° 334° (NNW) 2,184 ? -17.1°
Maximum altitude 23:26:53 15° 301° (WNW) 1,877 ? -17.3°
Drops below altitude 10° 23:29:28 10° 268° (W) 2,178 ? -17.5°
Sets 23:32:39 0° 245° (WSW) 3,092 ? -17.7°
